Weather History for KPRO - May, 2014

Change the Weather History Date:

Monday, May 19, 2014

  Actual Average (KAMW) Record (KAMW)
Temperature  
Mean Temperature 64 °F 62 °F  
Max Temperature 74 °F 73 °F - ()
Min Temperature 55 °F 50 °F - ()
Degree Days  
Heating Degree Days 0 5  
Month to date heating degree days 143  
Since 1 July heating degree days 6765  
Cooling Degree Days 0 2  
Month to date cooling degree days 17  
Year to date cooling degree days 20  
Growing Degree Days 14 (Base 50)    
Moisture  
Dew Point 51 °F    
Average Humidity 58    
Maximum Humidity 77    
Minimum Humidity 42    
Precipitation  
Precipitation 0.02 in 0.16 in - ()
Month to date precipitation 2.85  
Sea Level Pressure  
Sea Level Pressure 29.82 in    
Wind  
Wind Speed 16 mph (SE)    
Max Wind Speed 31 mph    
Max Gust Speed 37 mph    
Visibility 10 miles    
Events Rain    
T = Trace of Precipitation, MM = Missing Value Source: NWS Daily Summary

Daily Weather History Graph

Daily Weather History Graph

Search for Another Location

Airport or City:

Trip Planner

Search our weather history database for the weather conditions in past years. The results will help you decide how hot, cold, wet, or windy it might be!

Date:

Astronomy

May. 19, 2014 Rise Set
Actual Time 5:52 AM CDT 8:33 PM CDT
Civil Twilight 5:20 AM CDT 9:06 PM CDT
Nautical Twilight 4:40 AM CDT 9:46 PM CDT
Astronomical Twilight 3:54 AM CDT 10:33 PM CDT
Moon 12:20 AM CDT (5/19) 10:52 AM CDT (5/19)
Length of Visible Light 15h 45m
Length of Day
14h 41m
Waning Gibbous, 71% of the Moon is Illuminated
May 19
Waning Gibbous
May 21
Last Quarter
May 28
New
Jun 5
First Quarter
Jun 12
Full

Hourly Weather History & Observations

Time (CDT) Temp. Dew Point Humidity Pressure Visibility Wind Dir Wind Speed Gust Speed Precip Events Conditions
12:15 AM 62.4 °F 38.8 °F 42% 30.00 in 10.0 mi SSE 15.0 mph - N/A   Overcast
12:35 AM 62.1 °F 38.5 °F 42% 30.00 in 10.0 mi SSE 15.0 mph - N/A   Overcast
1:15 AM 61.7 °F 38.8 °F 43% 30.00 in 10.0 mi SSE 15.0 mph - N/A   Overcast
1:35 AM 61.3 °F 39.7 °F 45% 30.00 in 10.0 mi SE 12.7 mph - N/A   Overcast
1:55 AM 61.0 °F 40.1 °F 46% 30.00 in 10.0 mi SE 12.7 mph - N/A   Overcast
2:15 AM 60.3 °F 41.0 °F 49% 29.99 in 10.0 mi SE 12.7 mph - N/A   Overcast
2:35 AM 60.3 °F 40.3 °F 48% 29.99 in 10.0 mi SE 11.5 mph - N/A   Overcast
2:55 AM 60.1 °F 40.3 °F 48% 29.99 in 10.0 mi SE 13.8 mph - N/A   Overcast
3:15 AM 59.9 °F 40.3 °F 48% 29.98 in 10.0 mi SE 13.8 mph - N/A   Overcast
3:35 AM 59.7 °F 40.1 °F 48% 29.97 in 10.0 mi SE 17.3 mph - N/A   Overcast
3:55 AM 59.4 °F 40.1 °F 49% 29.96 in 10.0 mi SE 15.0 mph - N/A   Overcast
4:35 AM 59.0 °F 40.3 °F 50% 29.94 in 10.0 mi SE 16.1 mph 19.6 mph N/A   Overcast
4:55 AM 59.2 °F 40.5 °F 50% 29.94 in 10.0 mi SE 15.0 mph - N/A   Overcast
5:15 AM 59.0 °F 41.0 °F 51% 29.94 in 10.0 mi SE 15.0 mph - N/A   Overcast
5:35 AM 59.0 °F 41.9 °F 53% 29.93 in 10.0 mi SE 18.4 mph 21.9 mph N/A   Overcast
5:55 AM 58.6 °F 41.9 °F 54% 29.92 in 10.0 mi SE 17.3 mph 21.9 mph N/A   Overcast
6:20 AM 58.1 °F 42.6 °F 56% 29.92 in 10.0 mi SE 16.1 mph 19.6 mph N/A   Overcast
6:35 AM 58.1 °F 43.2 °F 58% 29.91 in 10.0 mi SE 16.1 mph - N/A   Overcast
6:55 AM 57.9 °F 43.9 °F 60% 29.90 in 10.0 mi SE 16.1 mph - N/A   Overcast
7:15 AM 56.7 °F 47.1 °F 70% 29.90 in 10.0 mi SSE 21.9 mph - N/A Rain Light Rain
7:35 AM 55.6 °F 48.4 °F 77% 29.89 in 10.0 mi SE 15.0 mph - N/A   Overcast
9:35 AM 61.0 °F 50.0 °F 67% 29.87 in 10.0 mi SSE 19.6 mph 27.6 mph N/A   Scattered Clouds
10:00 AM 60.1 °F 50.9 °F 72% 29.86 in 10.0 mi SSE 19.6 mph 24.2 mph N/A Rain Light Rain
10:15 AM 59.9 °F 52.7 °F 77% 29.85 in 7.0 mi SSE 19.6 mph - 0.02 in Rain Light Rain
10:35 AM 62.1 °F 53.6 °F 74% 29.84 in 10.0 mi SSE 19.6 mph 25.3 mph 0.02 in   Overcast
10:55 AM 63.7 °F 54.0 °F 71% 29.84 in 10.0 mi South 21.9 mph 25.3 mph 0.02 in   Overcast
11:15 AM 64.6 °F 53.8 °F 68% 29.82 in 10.0 mi SSE 24.2 mph - N/A   Overcast
11:35 AM 65.5 °F 54.0 °F 66% 29.81 in 10.0 mi SSE 24.2 mph 31.1 mph N/A   Overcast
11:55 AM 66.7 °F 54.3 °F 64% 29.79 in 10.0 mi SSE 25.3 mph 36.8 mph N/A   Overcast
12:15 PM 68.2 °F 54.0 °F 60% 29.78 in 10.0 mi SSE 25.3 mph 35.7 mph N/A   Overcast
12:35 PM 69.6 °F 54.3 °F 58% 29.77 in 10.0 mi South 29.9 mph 35.7 mph N/A   Overcast
12:55 PM 71.1 °F 54.5 °F 56% 29.76 in 10.0 mi South 26.5 mph 33.4 mph N/A   Overcast
1:15 PM 72.1 °F 54.5 °F 54% 29.75 in 10.0 mi South 31.1 mph 36.8 mph N/A   Overcast
1:40 PM 71.8 °F 54.5 °F 54% 29.75 in 10.0 mi SSE 26.5 mph 35.7 mph N/A   Overcast
1:55 PM 73.4 °F 54.7 °F 52% 29.75 in 10.0 mi South 24.2 mph 34.5 mph N/A   Overcast
2:15 PM 72.0 °F 54.9 °F 55% 29.74 in 10.0 mi SSE 24.2 mph 28.8 mph N/A   Overcast
2:35 PM 73.2 °F 55.4 °F 54% 29.74 in 10.0 mi South 24.2 mph 29.9 mph N/A   Overcast
3:15 PM 73.4 °F 55.8 °F 54% 29.73 in 10.0 mi South 23.0 mph 28.8 mph N/A   Overcast
3:35 PM 73.6 °F 56.1 °F 54% 29.73 in 10.0 mi South 24.2 mph 28.8 mph N/A   Overcast
3:55 PM 73.8 °F 56.3 °F 54% 29.72 in 10.0 mi South 18.4 mph 26.5 mph N/A   Overcast
4:15 PM 73.9 °F 56.3 °F 54% 29.72 in 10.0 mi South 19.6 mph 23.0 mph N/A   Overcast
4:35 PM 73.8 °F 56.3 °F 54% 29.71 in 10.0 mi SSE 15.0 mph 20.7 mph N/A   Overcast
4:55 PM 73.8 °F 56.7 °F 55% 29.70 in 10.0 mi SSE 15.0 mph 18.4 mph N/A   Overcast
5:20 PM 73.9 °F 56.8 °F 55% 29.70 in 10.0 mi SSE 12.7 mph - N/A   Overcast
5:55 PM 73.9 °F 57.2 °F 56% 29.70 in 10.0 mi SE 13.8 mph - N/A   Overcast
6:15 PM 74.3 °F 57.4 °F 55% 29.69 in 10.0 mi SE 12.7 mph - N/A   Overcast
6:35 PM 74.3 °F 57.6 °F 56% 29.69 in 10.0 mi SE 10.4 mph - N/A   Overcast
6:55 PM 73.8 °F 57.4 °F 56% 29.70 in 10.0 mi SE 10.4 mph - N/A   Overcast
7:15 PM 72.9 °F 57.7 °F 59% 29.72 in 10.0 mi SE 8.1 mph - N/A   Overcast
7:35 PM 72.1 °F 57.7 °F 60% 29.72 in 10.0 mi SE 6.9 mph - N/A   Overcast
7:55 PM 72.1 °F 57.7 °F 60% 29.72 in 10.0 mi ESE 8.1 mph - N/A   Overcast
8:15 PM 71.8 °F 57.7 °F 61% 29.72 in 10.0 mi ESE 10.4 mph - N/A   Overcast
8:35 PM 71.2 °F 57.6 °F 62% 29.72 in 10.0 mi SE 9.2 mph - N/A   Overcast
8:55 PM 70.9 °F 57.4 °F 62% 29.72 in 10.0 mi ESE 10.4 mph - N/A   Overcast
9:15 PM 70.2 °F 57.2 °F 63% 29.73 in 10.0 mi ESE 9.2 mph - N/A   Overcast
9:40 PM 70.2 °F 57.4 °F 64% 29.74 in 10.0 mi ESE 8.1 mph - N/A   Overcast
9:55 PM 69.8 °F 57.4 °F 65% 29.74 in 10.0 mi SE 9.2 mph - N/A   Overcast
10:15 PM 69.4 °F 57.4 °F 65% 29.75 in 10.0 mi SE 8.1 mph - N/A   Overcast
10:35 PM 67.6 °F 57.4 °F 70% 29.75 in 10.0 mi SE 4.6 mph - N/A   Overcast
10:55 PM 68.2 °F 57.4 °F 68% 29.75 in 10.0 mi ESE 6.9 mph - N/A   Overcast
11:15 PM 68.0 °F 57.7 °F 70% 29.75 in 10.0 mi ESE 8.1 mph - N/A   Overcast
11:35 PM 68.0 °F 57.7 °F 70% 29.75 in 10.0 mi SE 5.8 mph - N/A   Overcast
11:55 PM 67.1 °F 57.9 °F 72% 29.75 in 10.0 mi ESE 3.5 mph - N/A   Mostly Cloudy